Regional Weather Roundup
Issued by NWS

Home | Current Version | Previous Version | Graphics & Text | Print | Product List | Glossary On
Versions: 1 2 3 4 5 6 7 8 9 10 11 12 13 14 15 16 17 18 19 20 21 22 23 24 25 26 27 28 29 30 31 32 33 34 35 36 37 38 39 40 41 42 43 44 45 46 47 48 49 50
000
ASUS45 KABQ 102001
RWRNM
WEATHER ROUNDUP FOR NEW MEXICO
NATIONAL WEATHER SERVICE ALBUQUERQUE NM
200 PM MDT THU JUL 10 2014

NOTE: "FAIR" MEANS FEW OR NO CLOUDS BELOW 12,000 FEET AGL WITH NO
       SIGNIFICANT WEATHER OR OBSTRUCTIONS TO VISION.

      THIS PRODUCT IS RELEASED AS TWO VERSIONS.  ONE VERSION NEAR
      THE TOP OF THE HOUR CONTAINING PRELIMINARY DATA FROM ALBUQUERQUE
      AND OTHER STATIONS.  A FINAL VERSION WITH ADDITIONAL DATA IS
      ISSUED ABOUT 10 MINUTES AFTER THE HOUR.

NMZ501-503-504-510>518-102100-
NORTHWEST PLATEAU/NORTHCENTRAL MOUNTAINS

CITY           SKY/WX    TMP DP  RH WIND       PRES   REMARKS
FARMINGTON     SUNNY     87  48  25 W10G20    30.09F
LOS ALAMOS     CLOUDY    68  50  52 SW12      30.25F
SANTA FE       MOSUNNY   83  47  28 VRB5      30.15F
TAOS             N/A    N/A N/A N/A MISG        N/A
ANGEL FIRE     MOCLDY    70  49  45 N14       30.32S

$$
NMZ402-403-502-505>509-102100-
WESTCENTRAL MOUNTAINS/SOUTHWEST MOUNTAINS

CITY           SKY/WX    TMP DP  RH WIND       PRES   REMARKS
GALLUP         SUNNY     84  45  25 SW15      30.19F
GRANTS         MOSUNNY   76  48  36 W12G18    30.22S

$$
NMZ407-409-411-412-102100-
SOUTHERN DESERTS

CITY           SKY/WX    TMP DP  RH WIND       PRES   REMARKS
LORDSBURG      FAIR      91  52  25 CALM      30.03F
DEMING         PTSUNNY   93  49  22 VRB7      30.01F
LAS CRUCES     MOSUNNY   92  47  20 SE6       30.04F
HOLLOMAN AFB   PTSUNNY   91  51  25 E18       30.00F
T OR C         SUNNY     91  47  21 S5        30.05F

$$
NMZ519>523-102100-
CENTRAL VALLEYS/CENTRAL HIGHLANDS

CITY           SKY/WX    TMP DP  RH WIND       PRES   REMARKS
ALBUQUERQUE    MOSUNNY   86  49  27 CALM      30.11F
DOUBLE EAGLE   MOSUNNY   84  48  28 W7        30.14F
MORIARTY ARPT  FAIR      84  50  31 SW6       30.16F
CLINES CORNERS MOSUNNY   82  47  29 W14       30.21F
BELEN          FAIR      88  49  25 N5        30.09F
SOCORRO        FAIR      92  46  21 N3        30.06F

$$
NMZ524>526-539-540-102100-
SOUTHCENTRAL MOUNTAINS

CITY           SKY/WX    TMP DP  RH WIND       PRES   REMARKS
RUIDOSO        NOT AVBL

$$
NMZ527>531-102100-
NORTHEAST HIGHLANDS/NORTHEAST PLAINS

CITY           SKY/WX    TMP DP  RH WIND       PRES   REMARKS
LAS VEGAS      PTSUNNY   79  46  31 SW9G20    30.19F
RATON            N/A    N/A N/A N/A MISG      30.12F
CLAYTON        SUNNY     91  51  25 S16G28    30.06F

$$
NMZ532>537-102100-
EASTCENTRAL PLAINS

CITY           SKY/WX    TMP DP  RH WIND       PRES   REMARKS
TUCUMCARI      SUNNY     94  53  25 S16       30.00F
CANNON AFB     MOSUNNY   88  55  32 S14       30.07F
CLOVIS AIRPORT NOT AVBL

$$
NMZ028-029-538-102100-
SOUTHEAST PLAINS

CITY           SKY/WX    TMP DP  RH WIND       PRES   REMARKS
ROSWELL        SUNNY     94  51  23 S12G18    30.01F
ARTESIA        SUNNY     91  52  25 E12       30.01F
CARLSBAD       MOSUNNY   95  54  25 E16G25    29.99F
HOBBS          MOSUNNY   90  50  25 SE16G24   30.06F


$$


USA.gov is the U.S. government's official web portal to all federal, state and local government web resources and services.